カタログに戻る

STARLINK-31498

運用中通信VLEO
NORAD 59189·PAYLOAD·🇺🇸 United States

打ち上げ Mar 10, 2024 から Cape Canaveral Space Force Station

Loading…

次のパス (今後24時間)

TLE

最新Source: CelesTrak SupGP

元期: Sep 14, 2026, 20:57 UTC

1 59189C 24045M   26257.87340278 -.00026086  00000+0 -94500-3 0  2579
2 59189  43.0019 104.4236 0001326 269.1804   3.4145 15.27586173    16

AllMySatでSTARLINK-31498をリアルタイム追跡

Download on the App Store